SPAINSAT

Last updated on Tue Sep 22 2026 00:03:11 GMT+0000 (Coordinated Universal Time)

1 28945U 06007A 26264.08396063 -.00000221 00000+0 00000+0 0 9990 2 28945 0.8037 84.8054 0004900 98.9353 176.2690 1.00271524 75170
UTC large
Height (km)
Speed (km/s)
/
Latitude / Longitude
Inclination (degrees)
Orbital Period (minutes)
Azimuth
Elevation
Range (km)
Doppler Factor

Next 0 passes for location: London (51.5072 / 0.1276)

No passes found over London.
SPAINSAT